Flag for Czech Republic Weather past 2 weeks in Ostrava, Czech Republic

Now
32 °F

Overcast.


Feels Like: 25 °F
Forecast: 31 / 38 °F
Wind: 7 mph from South

Location: Ostrava / Mosnov

Current Time: Jan 29, 2015 at 8:34:15 PM

Latest Report: Jan 29, 2015 at 7:00 PM


Visibility: 16 mi

Pressure: 29.38 "Hg

Humidity: 76%

Dew point: 25 °F

Location of OstravaLocation

Historic Weather in Ostrava — Graph

°F

Ostrava temperature yesterday

Maximum temperature yesterday: 35 °F (at 3:00 PM)
Minimum temperature yesterday: 30 °F (at 4:00 AM)
Average temperature yesterday: 33 °F

Past Weeks' High & Low Weather Summary

 TemperatureHumidityPressure
High51 °F (Jan 17, 10:00 AM)98% (Jan 18, 8:00 AM)30.34 "Hg (Jan 18, 8:00 AM)
Low14 °F (Jan 26, 11:00 PM)51% (Jan 15, 3:00 PM)29.38 "Hg (Jan 29, 6:00 PM)
Average35 °F85%30.00 "Hg
* Reported Jan 14 7:00 PM — Jan 29 7:00 PM, Ostrava, Weather by CustomWeather, © 2014

Note: Actual official high and low records may vary slightly from our data, if they occured in-between our weather recording intervals... More about our weather records

Advertising

Ostrava weather history for previous 24 hours

 ConditionsComfort  
Time TempWeatherWind HumidityBarometerVisibility
7:00 PM
Jan 29
32 °FOvercast.7 mph76%29.38 "Hg16 mi
6:00 PM32 °FOvercast.6 mph74%29.38 "Hg16 mi
5:00 PM33 °FPassing clouds.5 mph74%29.41 "Hg16 mi
4:00 PM34 °FPartly sunny.5 mph70%29.41 "Hg16 mi
3:00 PM35 °FScattered clouds.8 mph64%29.44 "Hg16 mi
2:00 PM35 °FScattered clouds.7 mph65%29.44 "Hg16 mi
1:00 PM34 °FOvercast.9 mph73%29.47 "Hg12 mi
12:00 PM34 °FOvercast.8 mph77%29.50 "Hg9 mi
11:00 AM33 °FLight snow. Overcast.8 mph85%29.53 "Hg3 mi
10:00 AM32 °FLight snow. Overcast.7 mph86%29.50 "Hg3 mi
9:00 AM32 °FLight snow. Overcast.7 mph85%29.50 "Hg2 mi
8:00 AM32 °FOvercast.7 mph81%29.50 "Hg5 mi
7:00 AM33 °FLight snow. Overcast.10 mph79%29.50 "Hg3 mi
6:00 AM34 °FOvercast.10 mph72%29.50 "Hg12 mi
5:00 AM34 °FLight snow. Overcast.12 mph69%29.50 "Hg9 mi
4:00 AM34 °FOvercast.12 mph70%29.56 "Hg9 mi
3:00 AM34 °FOvercast.10 mph68%29.54 "Hg9 mi
2:00 AM35 °FPassing clouds.9 mph65%29.56 "Hg9 mi
1:00 AM34 °FPassing clouds.13 mph69%29.59 "Hg9 mi
12:00 AM33 °FPassing clouds.10 mph74%29.67 "Hg9 mi
11:00 PM
Jan 28
34 °FPassing clouds.10 mph72%29.67 "Hg9 mi
10:00 PM33 °FPassing clouds.5 mph75%29.72 "Hg9 mi
9:00 PM34 °FPassing clouds.6 mph75%29.77 "Hg9 mi
8:00 PM34 °FPassing clouds.6 mph73%29.82 "Hg9 mi
Weather by CustomWeather, © 2014

See weather overviewHow to use our weather pages